Location: Omaha
(41.2590°N, 95.9380°W)
Time: 04:31:41
(UTC-05:00)

N. Korean satellite - Pass Details

Date: 07 October 2017
Orbit: 459 x 517 km, 97.2° (Epoch: 17 October)

Event Time Altitude Azimuth Distance (km) Brightness Sun altitude
Rises 19:32:52 0° 172° (S) 2,580 10.2 -7.9°
Reaches altitude 10° 19:34:57 10° 174° (S) 1,693 9.3 -8.3°
Maximum altitude 19:38:36 71° 259° (W) 523 6.9 -9.0°
Drops below altitude 10° 19:42:11 10° 344° (NNW) 1,674 9.5 -9.7°
Sets 19:44:15 0° 346° (NNW) 2,548 10.4 -10.0°
